Weather History for Bloomington, IN

Change the Weather History Date:

Sunday, August 4, 2013

  Actual Average Record
Temperature  
Mean Temperature 67 °F 74 °F  
Max Temperature 79 °F 84 °F 97 °F (2010)
Min Temperature 54 °F 63 °F 54 °F (2013)
Degree Days  
Heating Degree Days 0 0  
Month to date heating degree days 0 0  
Since 1 June heating degree days 11 17  
Since 1 July heating degree days 4 2  
Cooling Degree Days 2 9  
Month to date cooling degree days 20 36  
Year to date cooling degree days 608 602  
Since 1 June cooling degree days 489 520  
Growing Degree Days 16 (Base 50)    
Moisture  
Dew Point 55 °F    
Average Humidity 70    
Maximum Humidity 100    
Minimum Humidity 39    
Precipitation  
Precipitation 0.00 in 0.12 in 0.17 in (2007)
Month to date precipitation T 0.47  
Year to date precipitation 28.84 30.14  
Sea Level Pressure  
Sea Level Pressure 30.12 in    
Wind  
Wind Speed 3 mph (NNE)    
Max Wind Speed 12 mph    
Max Gust Speed 16 mph    
Visibility 10 miles    
Events      
T = Trace of Precipitation, MM = Missing Value Source: NWS Daily Summary

Daily Weather History Graph

Daily Weather History Graph

Search for Another Location

Airport:

Trip Planner

Search our weather history database for the weather conditions in past years. The results will help you decide how hot, cold, wet, or windy it might be!

Date:

Astronomy

Aug. 04, 2013 Rise Set
Actual Time 6:49 AM EDT 8:54 PM EDT
Civil Twilight 6:20 AM EDT 9:24 PM EDT
Nautical Twilight 5:44 AM EDT 10:00 PM EDT
Astronomical Twilight 5:04 AM EDT 10:39 PM EDT
Moon 4:50 AM EDT (8/4) 7:17 PM EDT (8/4)
Length of Visible Light 15h 03m
Length of Day
14h 04m
Waning Crescent, 5% of the Moon is Illuminated
Aug 4
Waning Crescent
Aug 6
New
Aug 14
First Quarter
Aug 20
Full
Aug 28
Last Quarter

Hourly Weather History & Observations

Time (EDT) Temp. Dew Point Humidity Pressure Visibility Wind Dir Wind Speed Gust Speed Precip Events Conditions
12:53 AM 64.9 °F 59.0 °F 81% 30.07 in 10.0 mi North 5.8 mph - N/A   Clear
1:53 AM 64.0 °F 57.0 °F 78% 30.08 in 10.0 mi North 4.6 mph - N/A   Clear
2:53 AM 62.1 °F 55.9 °F 80% 30.08 in 10.0 mi North 3.5 mph - N/A   Clear
3:53 AM 59.0 °F 55.0 °F 87% 30.09 in 10.0 mi Calm Calm - N/A   Clear
4:53 AM 59.0 °F 55.0 °F 87% 30.09 in 10.0 mi Calm Calm - N/A   Clear
5:53 AM 55.9 °F 53.1 °F 90% 30.09 in 10.0 mi Calm Calm - N/A   Clear
6:53 AM 55.0 °F 53.1 °F 93% 30.12 in 10.0 mi Calm Calm - N/A   Clear
7:53 AM 59.0 °F 55.0 °F 87% 30.14 in 10.0 mi Calm Calm - N/A   Clear
8:53 AM 64.9 °F 55.0 °F 70% 30.15 in 10.0 mi NE 6.9 mph - N/A   Clear
9:53 AM 68.0 °F 55.9 °F 65% 30.15 in 10.0 mi ENE 5.8 mph - N/A   Clear
10:53 AM 72.0 °F 55.0 °F 55% 30.15 in 10.0 mi NE 9.2 mph - N/A   Clear
11:53 AM 73.9 °F 54.0 °F 50% 30.15 in 10.0 mi ENE 8.1 mph - N/A   Clear
12:53 PM 75.9 °F 54.0 °F 46% 30.15 in 10.0 mi NE 9.2 mph 16.1 mph N/A   Clear
1:53 PM 77.0 °F 53.1 °F 43% 30.15 in 10.0 mi NNE 5.8 mph - N/A   Partly Cloudy
2:53 PM 77.0 °F 50.0 °F 39% 30.14 in 10.0 mi Variable 3.5 mph - N/A   Scattered Clouds
3:53 PM 78.1 °F 53.1 °F 42% 30.12 in 10.0 mi Variable 3.5 mph - N/A   Partly Cloudy
4:53 PM 78.1 °F 52.0 °F 40% 30.12 in 10.0 mi Calm Calm - N/A   Partly Cloudy
5:53 PM 75.9 °F 53.1 °F 45% 30.11 in 10.0 mi North 4.6 mph - N/A   Clear
6:53 PM 77.0 °F 53.1 °F 43% 30.11 in 10.0 mi Variable 3.5 mph - N/A   Clear
7:53 PM 73.0 °F 57.9 °F 59% 30.11 in 10.0 mi Calm Calm - N/A   Clear
8:53 PM 66.0 °F 62.1 °F 87% 30.10 in 10.0 mi Calm Calm - N/A   Clear
9:53 PM 62.1 °F 59.0 °F 90% 30.12 in 10.0 mi Calm Calm - N/A   Clear
10:53 PM 59.0 °F 57.9 °F 96% 30.12 in 10.0 mi Calm Calm - N/A   Clear
11:53 PM 57.9 °F 57.0 °F 97% 30.11 in 10.0 mi Calm Calm - N/A   Clear